Plum, TX

2:11 PM CST on February 26, 2017 (GMT -0600)
La Grange

Weather History for K3T5 - December, 2013

Change the Weather History Date:

Friday, December 20, 2013

  Actual Average (KAUS) Record (KAUS)
Temperature  
Mean Temperature 74 °F -  
Max Temperature 78 °F 59 °F 84 °F (1951)
Min Temperature 70 °F 34 °F 24 °F (2000)
Cooling Degree Days 9    
Growing Degree Days 24 (Base 50)    
Moisture  
Dew Point 31 °F    
Average Humidity 26    
Maximum Humidity 58    
Minimum Humidity 4    
Precipitation  
Precipitation 0.00 in - - ()
Sea Level Pressure  
Sea Level Pressure 29.78 in    
Wind  
Wind Speed 12 mph (South)    
Max Wind Speed 16 mph    
Max Gust Speed 23 mph    
Visibility 9 miles    
Events      
Averages and records for this station are not official NWS values.
T = Trace of Precipitation, MM = Missing Value Source: NWS Daily Summary

Daily Weather History Graph

Daily Weather History Graph

Search for Another Location

Airport or City:

Trip Planner

Search our weather history database for the weather conditions in past years. The results will help you decide how hot, cold, wet, or windy it might be!

Date:

Astronomy

Dec. 20, 2013 Rise Set
Actual Time 7:18 AM CST 5:32 PM CST
Civil Twilight 6:52 AM CST 5:58 PM CST
Nautical Twilight 6:22 AM CST 6:28 PM CST
Astronomical Twilight 5:53 AM CST 6:57 PM CST
Moon 8:41 PM CST (12/20) 9:24 AM CST (12/20)
Length of Visible Light 11h 06m
Length of Day
10h 13m
Waning Gibbous, 90% of the Moon is Illuminated
Dec 20
Waning Gibbous
Dec 25
Last Quarter
Jan 1
New
Jan 7
First Quarter
Jan 15
Full

Hourly Weather History & Observations

Time (CST) Temp. Dew Point Humidity Pressure Visibility Wind Dir Wind Speed Gust Speed Precip Events Conditions
12:15 AM 71.1 °F 55.6 °F 58% 29.84 in 10.0 mi South 12.7 mph 21.9 mph N/A   Scattered Clouds
12:35 AM 71.1 °F 54.5 °F 56% 29.84 in 10.0 mi South 15.0 mph 23.0 mph N/A   Scattered Clouds
12:55 AM 71.6 °F 53.6 °F 53% 29.83 in 10.0 mi South 13.8 mph 19.6 mph N/A   Mostly Cloudy
1:15 AM 71.8 °F 52.5 °F 51% 29.83 in 10.0 mi South 15.0 mph 21.9 mph N/A   Overcast
1:35 AM 71.8 °F 51.8 °F 49% 29.83 in 10.0 mi South 13.8 mph 20.7 mph N/A   Overcast
1:55 AM 71.8 °F 51.1 °F 48% 29.82 in 10.0 mi South 12.7 mph 19.6 mph N/A   Overcast
2:15 AM 71.2 °F 51.1 °F 49% 29.83 in 10.0 mi South 12.7 mph 20.7 mph N/A   Mostly Cloudy
2:35 AM 71.4 °F 50.5 °F 48% 29.82 in 10.0 mi South 12.7 mph 21.9 mph N/A   Overcast
2:55 AM 71.1 °F 50.4 °F 48% 29.82 in 10.0 mi South 16.1 mph 21.9 mph N/A   Overcast
3:15 AM 71.1 °F 50.2 °F 48% 29.82 in 10.0 mi South 11.5 mph 20.7 mph N/A   Mostly Cloudy
3:35 AM 70.7 °F 50.4 °F 48% 29.82 in 10.0 mi South 12.7 mph - N/A   Scattered Clouds
3:55 AM 71.1 °F 48.6 °F 45% 29.82 in 10.0 mi South 10.4 mph - N/A   Scattered Clouds
4:15 AM 71.6 °F 48.2 °F 43% 29.82 in 10.0 mi South 11.5 mph 19.6 mph N/A   Scattered Clouds
4:35 AM 71.6 °F 47.1 °F 42% 29.82 in 10.0 mi South 11.5 mph 17.3 mph N/A   Mostly Cloudy
4:55 AM 71.6 °F 46.4 °F 41% 29.83 in 10.0 mi South 10.4 mph 17.3 mph N/A   Mostly Cloudy
5:15 AM 71.8 °F 45.7 °F 39% 29.83 in 10.0 mi South 12.7 mph 16.1 mph N/A   Mostly Cloudy
5:35 AM 71.8 °F 44.8 °F 38% 29.83 in 10.0 mi South 10.4 mph - N/A   Mostly Cloudy
5:55 AM 71.6 °F 43.7 °F 37% 29.83 in 10.0 mi South 9.2 mph - N/A   Mostly Cloudy
6:15 AM 71.8 °F 42.8 °F 35% 29.83 in 10.0 mi South 8.1 mph - N/A   Mostly Cloudy
6:35 AM 71.6 °F 42.1 °F 34% 29.83 in 10.0 mi South 8.1 mph - N/A   Mostly Cloudy
6:55 AM 71.8 °F 40.6 °F 32% 29.84 in 10.0 mi South 6.9 mph - N/A   Mostly Cloudy
7:15 AM 71.6 °F 40.5 °F 32% 29.84 in 10.0 mi South 8.1 mph - N/A   Mostly Cloudy
7:35 AM 71.6 °F 39.7 °F 31% 29.85 in 10.0 mi South 5.8 mph - N/A   Mostly Cloudy
7:55 AM 71.6 °F 38.7 °F 30% 29.85 in 7.0 mi South 6.9 mph - N/A   Scattered Clouds
8:15 AM 71.8 °F 37.0 °F 28% 29.85 in 7.0 mi SSE 6.9 mph - N/A   Mostly Cloudy
8:35 AM 72.3 °F 34.3 °F 25% 29.85 in 7.0 mi South 9.2 mph - N/A   Mostly Cloudy
8:55 AM 72.5 °F 32.9 °F 23% 29.84 in 7.0 mi SSE 9.2 mph - N/A   Mostly Cloudy
9:15 AM 72.7 °F 29.7 °F 20% 29.85 in 7.0 mi SSE 8.1 mph - N/A   Mostly Cloudy
9:35 AM 73.6 °F 24.4 °F 16% 29.85 in 7.0 mi South 12.7 mph 17.3 mph N/A   Mostly Cloudy
9:55 AM 73.8 °F 19.8 °F 13% 29.86 in 10.0 mi South 10.4 mph - N/A   Overcast
10:15 AM 73.9 °F 18.0 °F 12% 29.86 in 10.0 mi SSE 9.2 mph - N/A   Mostly Cloudy
10:35 AM 73.8 °F 19.0 °F 13% 29.86 in 10.0 mi South 10.4 mph 18.4 mph N/A   Mostly Cloudy
10:55 AM 73.8 °F 18.9 °F 13% 29.86 in 7.0 mi South 10.4 mph - N/A   Scattered Clouds
11:15 AM 74.3 °F 14.9 °F 10% 29.85 in 7.0 mi South 9.2 mph - N/A   Scattered Clouds
11:35 AM 74.7 °F 13.6 °F 10% 29.84 in 7.0 mi South 10.4 mph 18.4 mph N/A   Scattered Clouds
11:55 AM 75.2 °F 6.8 °F 7% 29.84 in 10.0 mi South 13.8 mph - N/A   Scattered Clouds
12:15 PM 75.6 °F 4.5 °F 6% 29.83 in 10.0 mi South 9.2 mph 16.1 mph N/A   Scattered Clouds
12:35 PM 76.3 °F -8.1 °F 4% 29.81 in 10.0 mi South 9.2 mph - N/A   Scattered Clouds
12:55 PM - - N/A% 29.79 in 10.0 mi South 11.5 mph - N/A   Mostly Cloudy
1:15 PM 77.0 °F -12.8 °F 4% 29.78 in 10.0 mi South 11.5 mph 17.3 mph N/A   Overcast
1:35 PM 77.2 °F -13.2 °F 4% 29.77 in 10.0 mi South 13.8 mph 19.6 mph N/A   Mostly Cloudy
1:55 PM 77.5 °F -11.0 °F 4% 29.76 in 10.0 mi South 11.5 mph 18.4 mph N/A   Mostly Cloudy
2:15 PM 78.8 °F -9.9 °F 4% 29.75 in 10.0 mi South 12.7 mph 20.7 mph N/A   Scattered Clouds
2:35 PM 78.1 °F 9.0 °F 7% 29.74 in 10.0 mi South 16.1 mph 20.7 mph N/A   Mostly Cloudy
2:55 PM 78.1 °F 14.2 °F 9% 29.73 in 10.0 mi South 11.5 mph 23.0 mph N/A   Mostly Cloudy
3:15 PM 77.5 °F 23.2 °F 13% 29.73 in 10.0 mi South 11.5 mph 20.7 mph N/A   Mostly Cloudy
3:35 PM 77.5 °F 25.7 °F 15% 29.73 in 10.0 mi South 11.5 mph - N/A   Mostly Cloudy
3:55 PM 77.4 °F 31.3 °F 19% 29.73 in 10.0 mi South 16.1 mph - N/A   Overcast
4:15 PM 77.0 °F 34.3 °F 21% 29.73 in 10.0 mi South 12.7 mph 18.4 mph N/A   Mostly Cloudy
4:35 PM 77.0 °F 36.7 °F 23% 29.73 in 10.0 mi South 10.4 mph - N/A   Mostly Cloudy
4:55 PM 77.0 °F 37.6 °F 24% 29.73 in 10.0 mi South 12.7 mph - N/A   Mostly Cloudy
5:15 PM 76.3 °F 42.1 °F 29% 29.73 in 10.0 mi SSE 6.9 mph - N/A   Mostly Cloudy
5:35 PM 75.7 °F 43.2 °F 31% 29.73 in 10.0 mi SSE 9.2 mph - N/A   Mostly Cloudy
5:55 PM 75.6 °F 44.1 °F 32% 29.72 in 10.0 mi SSE 10.4 mph - N/A   Mostly Cloudy
6:15 PM 75.2 °F 43.3 °F 32% 29.72 in 10.0 mi SSE 11.5 mph 18.4 mph N/A   Mostly Cloudy
6:35 PM 75.2 °F 43.7 °F 32% 29.71 in 10.0 mi SSE 10.4 mph 16.1 mph N/A   Mostly Cloudy
6:55 PM 74.8 °F 43.2 °F 32% 29.72 in 7.0 mi SSE 9.2 mph 16.1 mph N/A   Mostly Cloudy
7:15 PM 75.2 °F 40.3 °F 28% 29.71 in 7.0 mi SSE 10.4 mph 18.4 mph N/A   Mostly Cloudy
7:35 PM 75.2 °F 39.7 °F 28% 29.71 in 7.0 mi SSE 8.1 mph 18.4 mph N/A   Mostly Cloudy
7:55 PM 74.8 °F 39.7 °F 28% 29.72 in 7.0 mi South 9.2 mph 16.1 mph N/A   Mostly Cloudy
8:15 PM 74.8 °F 37.6 °F 26% 29.73 in 7.0 mi South 10.4 mph - N/A   Mostly Cloudy
8:35 PM 75.2 °F 34.3 °F 23% 29.73 in 7.0 mi SSE 9.2 mph 17.3 mph N/A   Scattered Clouds
8:55 PM 75.2 °F 32.9 °F 21% 29.72 in 7.0 mi SSE 10.4 mph 16.1 mph N/A   Scattered Clouds
9:15 PM 75.2 °F 29.8 °F 19% 29.72 in 7.0 mi South 12.7 mph 18.4 mph N/A   Mostly Cloudy
9:35 PM 75.6 °F 25.9 °F 16% 29.72 in 7.0 mi South 13.8 mph 19.6 mph N/A   Mostly Cloudy
9:55 PM 75.6 °F 22.5 °F 14% 29.70 in 7.0 mi SSE 12.7 mph 20.7 mph N/A   Mostly Cloudy
10:15 PM 75.6 °F 19.2 °F 12% 29.69 in 7.0 mi SSE 11.5 mph 18.4 mph N/A   Mostly Cloudy
10:35 PM 76.3 °F 12.4 °F 9% 29.69 in 10.0 mi SSE 10.4 mph 21.9 mph N/A   Scattered Clouds
10:55 PM 76.3 °F 10.9 °F 8% 29.70 in 10.0 mi South 12.7 mph - N/A   Mostly Cloudy
11:15 PM 76.3 °F 4.8 °F 6% 29.70 in 10.0 mi South 13.8 mph - N/A   Mostly Cloudy
11:35 PM 76.3 °F 3.7 °F 6% 29.70 in 10.0 mi South 11.5 mph 19.6 mph N/A   Mostly Cloudy
11:55 PM 76.3 °F -1.7 °F 5% 29.69 in 10.0 mi South 12.7 mph 17.3 mph N/A   Mostly Cloudy